contact:dominique.lefevre@mio.osupytheas.fr, maurice.libes@osupytheas.fr, didier.mallarino@osupytheas.fr
Project:EMSO http://www.emso-fr.org/EMSO-France
Depth: 2436.0 m
Title:EMSO Ligure Ouest : Data MII capteur CSTAR
DateTime,Latitude,Longitude,Instrument_Serial,Reference_Counts,Signal_Counts,Corrected_Signal_raw_counts,Calculated_Beam_c_inverse_meters,Internal_thermistor_counts
DateTime,Latitude,Longitude,Instrument_Serial,Reference_Counts,Signal_Counts,Corrected_Signal_raw_counts,Calculated_Beam_c_inverse_meters,Internal_thermistor_counts
2023-11-28T00:02:57,42.805,6.029,CST-1368DR,4099,4352,11250,01.312,553
2023-11-28T00:05:58,42.805,6.029,CST-1368DR,4099,4349,11243,01.314,553
2023-11-28T00:09:00,42.805,6.029,CST-1368DR,4099,4349,11243,01.314,553
2023-11-28T00:12:01,42.805,6.029,CST-1368DR,4099,4349,11243,01.314,553
2023-11-28T00:15:03,42.805,6.029,CST-1368DR,4099,4348,11241,01.315,553
2023-11-28T00:18:04,42.805,6.029,CST-1368DR,4099,4351,11247,01.313,553
2023-11-28T00:21:06,42.805,6.029,CST-1368DR,4099,4351,11248,01.312,553
2023-11-28T00:24:08,42.805,6.029,CST-1368DR,4099,4351,11248,01.312,553
2023-11-28T00:27:09,42.805,6.029,CST-1368DR,4099,4351,11247,01.313,553
2023-11-28T00:30:11,42.805,6.029,CST-1368DR,4099,4351,11248,01.312,553
2023-11-28T00:33:12,42.805,6.029,CST-1368DR,4099,4351,11248,01.312,553
2023-11-28T00:36:14,42.805,6.029,CST-1368DR,4099,4350,11246,01.313,553
2023-11-28T00:39:16,42.805,6.029,CST-1368DR,4099,4352,11249,01.312,553
2023-11-28T00:42:17,42.805,6.029,CST-1368DR,4099,4351,11247,01.313,553
2023-11-28T00:45:19,42.805,6.029,CST-1368DR,4099,4352,11250,01.312,553
2023-11-28T00:48:20,42.805,6.029,CST-1368DR,4099,4351,11248,01.312,552
2023-11-28T00:51:22,42.805,6.029,CST-1368DR,4099,4350,11245,01.313,553
2023-11-28T00:54:23,42.805,6.029,CST-1368DR,4099,4352,11249,01.312,553
2023-11-28T00:57:25,42.805,6.029,CST-1368DR,4099,4350,11245,01.313,553
2023-11-28T01:00:27,42.805,6.029,CST-1368DR,4098,4348,11243,01.314,553
2023-11-28T01:03:28,42.805,6.029,CST-1368DR,4099,4352,11250,01.312,553
2023-11-28T01:06:30,42.805,6.029,CST-1368DR,4099,4353,11254,01.310,553
2023-11-28T01:09:31,42.805,6.029,CST-1368DR,4099,4353,11254,01.310,553
2023-11-28T01:12:33,42.805,6.029,CST-1368DR,4099,4353,11254,01.310,553
2023-11-28T01:15:34,42.805,6.029,CST-1368DR,4099,4352,11250,01.312,553
2023-11-28T01:18:36,42.805,6.029,CST-1368DR,4099,4349,11243,01.314,553
2023-11-28T01:21:38,42.805,6.029,CST-1368DR,4099,4350,11245,01.313,553
2023-11-28T01:24:39,42.805,6.029,CST-1368DR,4099,4352,11249,01.312,553
2023-11-28T01:27:41,42.805,6.029,CST-1368DR,4099,4354,11256,01.310,553
2023-11-28T01:30:42,42.805,6.029,CST-1368DR,4099,4351,11247,01.313,553
2023-11-28T01:33:44,42.805,6.029,CST-1368DR,4099,4352,11249,01.312,553
2023-11-28T01:36:45,42.805,6.029,CST-1368DR,4098,4351,11250,01.312,552
2023-11-28T01:39:47,42.805,6.029,CST-1368DR,4099,4351,11248,01.312,553
2023-11-28T01:42:49,42.805,6.029,CST-1368DR,4098,4353,11254,01.310,553
2023-11-28T01:45:50,42.805,6.029,CST-1368DR,4099,4353,11252,01.311,553
2023-11-28T01:48:52,42.805,6.029,CST-1368DR,4099,4353,11254,01.310,553
2023-11-28T01:51:53,42.805,6.029,CST-1368DR,4099,4353,11252,01.311,553
2023-11-28T01:54:55,42.805,6.029,CST-1368DR,4099,4352,11251,01.311,553
2023-11-28T01:57:57,42.805,6.029,CST-1368DR,4099,4353,11254,01.310,553
2023-11-28T02:00:58,42.805,6.029,CST-1368DR,4099,4354,11255,01.310,553
2023-11-28T02:04:00,42.805,6.029,CST-1368DR,4099,4353,11254,01.310,553
2023-11-28T02:07:01,42.805,6.029,CST-1368DR,4099,4352,11250,01.312,553
2023-11-28T02:10:03,42.805,6.029,CST-1368DR,4099,4353,11252,01.311,553
2023-11-28T02:13:04,42.805,6.029,CST-1368DR,4099,4353,11252,01.311,553
2023-11-28T02:16:06,42.805,6.029,CST-1368DR,4098,4353,11254,01.310,553
2023-11-28T02:19:08,42.805,6.029,CST-1368DR,4099,4351,11248,01.312,553
2023-11-28T02:22:09,42.805,6.029,CST-1368DR,4099,4354,11255,01.310,553
2023-11-28T02:25:11,42.805,6.029,CST-1368DR,4099,4351,11248,01.312,553
2023-11-28T02:28:12,42.805,6.029,CST-1368DR,4098,4353,11254,01.310,553
2023-11-28T02:31:14,42.805,6.029,CST-1368DR,4098,4351,11251,01.311,553
2023-11-28T02:34:16,42.805,6.029,CST-1368DR,4098,4352,11252,01.311,553
2023-11-28T02:37:17,42.805,6.029,CST-1368DR,4099,4352,11250,01.312,553
2023-11-28T02:40:19,42.805,6.029,CST-1368DR,4099,4353,11252,01.311,553
2023-11-28T02:43:20,42.805,6.029,CST-1368DR,4099,4352,11250,01.312,553
2023-11-28T02:46:22,42.805,6.029,CST-1368DR,4099,4353,11252,01.311,553
2023-11-28T02:49:23,42.805,6.029,CST-1368DR,4099,4354,11254,01.310,553
2023-11-28T02:52:25,42.805,6.029,CST-1368DR,4099,4352,11250,01.312,553
2023-11-28T02:55:27,42.805,6.029,CST-1368DR,4099,4353,11252,01.311,553
2023-11-28T02:58:28,42.805,6.029,CST-1368DR,4098,4352,11252,01.311,553
2023-11-28T03:01:30,42.805,6.029,CST-1368DR,4098,4347,11241,01.315,553
2023-11-28T03:04:31,42.805,6.029,CST-1368DR,4098,4347,11240,01.315,553
2023-11-28T03:07:33,42.805,6.029,CST-1368DR,4099,4348,11239,01.316,553
2023-11-28T03:10:34,42.805,6.029,CST-1368DR,4099,4350,11244,01.314,553
2023-11-28T03:13:36,42.805,6.029,CST-1368DR,4099,4348,11239,01.316,553
2023-11-28T03:16:38,42.805,6.029,CST-1368DR,4098,4350,11248,01.312,552
2023-11-28T03:19:39,42.805,6.029,CST-1368DR,4098,4348,11241,01.315,553
2023-11-28T03:22:41,42.805,6.029,CST-1368DR,4099,4346,11234,01.317,552
2023-11-28T03:25:42,42.805,6.029,CST-1368DR,4098,4348,11243,01.314,553
2023-11-28T03:28:44,42.805,6.029,CST-1368DR,4098,4349,11245,01.313,553
2023-11-28T03:31:46,42.805,6.029,CST-1368DR,4098,4348,11243,01.314,553
2023-11-28T03:34:47,42.805,6.029,CST-1368DR,4098,4349,11245,01.313,553
2023-11-28T03:37:49,42.805,6.029,CST-1368DR,4098,4348,11241,01.315,553
2023-11-28T03:40:50,42.805,6.029,CST-1368DR,4098,4347,11240,01.315,553
2023-11-28T03:43:52,42.805,6.029,CST-1368DR,4099,4348,11241,01.315,553
2023-11-28T03:46:53,42.805,6.029,CST-1368DR,4099,4347,11238,01.316,553
2023-11-28T03:49:55,42.805,6.029,CST-1368DR,4098,4349,11245,01.313,553
2023-11-28T03:52:57,42.805,6.029,CST-1368DR,4098,4350,11247,01.313,553
2023-11-28T03:55:58,42.805,6.029,CST-1368DR,4099,4352,11250,01.312,553
2023-11-28T03:59:00,42.805,6.029,CST-1368DR,4099,4350,11244,01.314,553
2023-11-28T04:02:01,42.805,6.029,CST-1368DR,4098,4347,11240,01.315,553
2023-11-28T04:05:03,42.805,6.029,CST-1368DR,4098,4347,11241,01.315,553
2023-11-28T04:08:04,42.805,6.029,CST-1368DR,4098,4347,11241,01.315,553
2023-11-28T04:11:06,42.805,6.029,CST-1368DR,4098,4347,11240,01.315,553
2023-11-28T04:14:08,42.805,6.029,CST-1368DR,4098,4347,11240,01.315,553
2023-11-28T04:17:09,42.805,6.029,CST-1368DR,4098,4349,11244,01.314,553
2023-11-28T04:20:11,42.805,6.029,CST-1368DR,4098,4347,11239,01.316,553
2023-11-28T04:23:12,42.805,6.029,CST-1368DR,4099,4347,11238,01.316,553
2023-11-28T04:26:14,42.805,6.029,CST-1368DR,4098,4348,11243,01.314,553
2023-11-28T04:29:16,42.805,6.029,CST-1368DR,4099,4352,11250,01.312,553
2023-11-28T04:32:17,42.805,6.029,CST-1368DR,4098,4348,11243,01.314,553
2023-11-28T04:35:19,42.805,6.029,CST-1368DR,4099,4348,11239,01.316,553
2023-11-28T04:38:20,42.805,6.029,CST-1368DR,4099,4350,11246,01.313,553
2023-11-28T04:41:22,42.805,6.029,CST-1368DR,4098,4350,11248,01.312,553
2023-11-28T04:44:23,42.805,6.029,CST-1368DR,4098,4348,11242,01.315,553
2023-11-28T04:47:25,42.805,6.029,CST-1368DR,4098,4346,11238,01.316,553
2023-11-28T04:50:27,42.805,6.029,CST-1368DR,4099,4350,11246,01.313,553
2023-11-28T04:53:28,42.805,6.029,CST-1368DR,4098,4350,11247,01.313,553
2023-11-28T04:56:30,42.805,6.029,CST-1368DR,4098,4348,11243,01.314,553
2023-11-28T04:59:31,42.805,6.029,CST-1368DR,4098,4349,11244,01.314,553
2023-11-28T05:02:33,42.805,6.029,CST-1368DR,4098,4349,11245,01.313,553
2023-11-28T05:05:34,42.805,6.029,CST-1368DR,4098,4350,11247,01.313,553
2023-11-28T05:08:36,42.805,6.029,CST-1368DR,4098,4348,11243,01.314,553
2023-11-28T05:11:38,42.805,6.029,CST-1368DR,4098,4348,11243,01.314,553
2023-11-28T05:14:39,42.805,6.029,CST-1368DR,4098,4351,11249,01.312,553
2023-11-28T05:17:41,42.805,6.029,CST-1368DR,4098,4349,11244,01.314,553
2023-11-28T05:20:42,42.805,6.029,CST-1368DR,4098,4348,11241,01.315,553
2023-11-28T05:23:44,42.805,6.029,CST-1368DR,4098,4348,11242,01.315,553
2023-11-28T05:26:45,42.805,6.029,CST-1368DR,4098,4349,11245,01.313,553
2023-11-28T05:29:47,42.805,6.029,CST-1368DR,4098,4350,11247,01.313,553
2023-11-28T05:32:50,42.805,6.029,CST-1368DR,4098,4349,11245,01.313,553
2023-11-28T05:35:52,42.805,6.029,CST-1368DR,4098,4349,11245,01.313,553
2023-11-28T05:38:53,42.805,6.029,CST-1368DR,4098,4349,11245,01.313,553
2023-11-28T05:41:55,42.805,6.029,CST-1368DR,4098,4349,11244,01.314,553
2023-11-28T05:44:57,42.805,6.029,CST-1368DR,4098,4349,11246,01.313,553
2023-11-28T05:47:58,42.805,6.029,CST-1368DR,4098,4350,11248,01.312,553
2023-11-28T05:51:00,42.805,6.029,CST-1368DR,4098,4351,11250,01.312,553
2023-11-28T05:54:01,42.805,6.029,CST-1368DR,4098,4349,11245,01.313,553
2023-11-28T05:57:03,42.805,6.029,CST-1368DR,4098,4352,11252,01.311,553
2023-11-28T06:00:05,42.805,6.029,CST-1368DR,4098,4348,11243,01.314,553
2023-11-28T06:03:06,42.805,6.029,CST-1368DR,4098,4349,11244,01.314,553
2023-11-28T06:06:08,42.805,6.029,CST-1368DR,4098,4349,11244,01.314,553
2023-11-28T06:09:09,42.805,6.029,CST-1368DR,4098,4347,11239,01.316,553
2023-11-28T06:12:11,42.805,6.029,CST-1368DR,4098,4350,11248,01.312,553
2023-11-28T06:15:12,42.805,6.029,CST-1368DR,4098,4350,11248,01.312,553
2023-11-28T06:18:14,42.805,6.029,CST-1368DR,4098,4349,11246,01.313,553
2023-11-28T06:21:16,42.805,6.029,CST-1368DR,4098,4348,11242,01.315,553
2023-11-28T06:24:17,42.805,6.029,CST-1368DR,4098,4352,11252,01.311,553
2023-11-28T06:27:19,42.805,6.029,CST-1368DR,4098,4343,11229,01.319,553
2023-11-28T06:30:20,42.805,6.029,CST-1368DR,4098,4349,11245,01.313,553
2023-11-28T06:33:22,42.805,6.029,CST-1368DR,4098,4349,11245,01.313,553
2023-11-28T06:36:23,42.805,6.029,CST-1368DR,4098,4349,11246,01.313,553
2023-11-28T06:39:25,42.805,6.029,CST-1368DR,4098,4351,11249,01.312,553
2023-11-28T06:42:27,42.805,6.029,CST-1368DR,4098,4349,11245,01.313,553
2023-11-28T06:45:28,42.805,6.029,CST-1368DR,4098,4348,11243,01.314,553
2023-11-28T06:48:30,42.805,6.029,CST-1368DR,4098,4349,11245,01.313,553
2023-11-28T06:51:31,42.805,6.029,CST-1368DR,4098,4349,11244,01.314,553
2023-11-28T06:54:33,42.805,6.029,CST-1368DR,4098,4348,11243,01.314,553
2023-11-28T06:57:34,42.805,6.029,CST-1368DR,4098,4350,11249,01.312,553
2023-11-28T07:00:36,42.805,6.029,CST-1368DR,4098,4350,11248,01.312,553
2023-11-28T07:03:38,42.805,6.029,CST-1368DR,4098,4351,11250,01.312,553
2023-11-28T07:06:39,42.805,6.029,CST-1368DR,4098,4351,11249,01.312,553
2023-11-28T07:09:41,42.805,6.029,CST-1368DR,4098,4348,11243,01.314,553
2023-11-28T07:12:42,42.805,6.029,CST-1368DR,4098,4350,11247,01.313,553
2023-11-28T07:15:44,42.805,6.029,CST-1368DR,4098,4350,11249,01.312,553
2023-11-28T07:18:46,42.805,6.029,CST-1368DR,4098,4348,11242,01.315,553
2023-11-28T07:21:47,42.805,6.029,CST-1368DR,4098,4349,11245,01.313,553
2023-11-28T07:24:49,42.805,6.029,CST-1368DR,4098,4348,11241,01.315,553
2023-11-28T07:27:50,42.805,6.029,CST-1368DR,4098,4349,11245,01.313,553
2023-11-28T07:30:53,42.805,6.029,CST-1368DR,4098,4351,11249,01.312,553
2023-11-28T07:33:55,42.805,6.029,CST-1368DR,4098,4351,11250,01.312,553
2023-11-28T07:36:57,42.805,6.029,CST-1368DR,4098,4351,11250,01.312,553
2023-11-28T07:39:58,42.805,6.029,CST-1368DR,4098,4351,11249,01.312,553
2023-11-28T07:43:00,42.805,6.029,CST-1368DR,4098,4350,11248,01.312,553
2023-11-28T07:46:01,42.805,6.029,CST-1368DR,4098,4351,11250,01.312,553
2023-11-28T07:49:03,42.805,6.029,CST-1368DR,4098,4350,11247,01.313,553
2023-11-28T07:52:05,42.805,6.029,CST-1368DR,4098,4351,11250,01.312,553
2023-11-28T07:55:06,42.805,6.029,CST-1368DR,4098,4348,11242,01.315,553
2023-11-28T07:58:08,42.805,6.029,CST-1368DR,4098,4351,11250,01.312,553
2023-11-28T08:01:09,42.805,6.029,CST-1368DR,4098,4350,11248,01.312,553
2023-11-28T08:04:11,42.805,6.029,CST-1368DR,4098,4349,11246,01.313,553
2023-11-28T08:07:12,42.805,6.029,CST-1368DR,4098,4351,11250,01.312,553
2023-11-28T08:10:14,42.805,6.029,CST-1368DR,4098,4348,11243,01.314,553
2023-11-28T08:13:16,42.805,6.029,CST-1368DR,4098,4350,11249,01.312,553
2023-11-28T08:16:17,42.805,6.029,CST-1368DR,4098,4351,11250,01.312,553
2023-11-28T08:19:19,42.805,6.029,CST-1368DR,4098,4350,11248,01.312,553
2023-11-28T08:22:20,42.805,6.029,CST-1368DR,4098,4349,11245,01.313,553
2023-11-28T08:25:22,42.805,6.029,CST-1368DR,4098,4350,11247,01.313,553
2023-11-28T08:28:23,42.805,6.029,CST-1368DR,4098,4349,11245,01.313,553
2023-11-28T08:31:25,42.805,6.029,CST-1368DR,4098,4351,11250,01.312,553
2023-11-28T08:34:27,42.805,6.029,CST-1368DR,4098,4352,11252,01.311,553
2023-11-28T08:37:28,42.805,6.029,CST-1368DR,4098,4353,11254,01.310,553
2023-11-28T08:40:30,42.805,6.029,CST-1368DR,4098,4354,11258,01.309,553
2023-11-28T08:43:31,42.805,6.029,CST-1368DR,4098,4354,11259,01.309,553
2023-11-28T08:46:33,42.805,6.029,CST-1368DR,4098,4352,11253,01.311,553
2023-11-28T08:49:35,42.805,6.029,CST-1368DR,4098,4353,11256,01.310,553
2023-11-28T08:52:36,42.805,6.029,CST-1368DR,4098,4354,11257,01.309,553
2023-11-28T08:55:38,42.805,6.029,CST-1368DR,4098,4352,11252,01.311,553
2023-11-28T08:58:39,42.805,6.029,CST-1368DR,4098,4353,11255,01.310,553
2023-11-28T09:01:41,42.805,6.029,CST-1368DR,4098,4350,11247,01.313,553
2023-11-28T09:04:42,42.805,6.029,CST-1368DR,4098,4352,11252,01.311,553
2023-11-28T09:07:44,42.805,6.029,CST-1368DR,4098,4353,11255,01.310,553
2023-11-28T09:10:46,42.805,6.029,CST-1368DR,4098,4352,11253,01.311,553
2023-11-28T09:13:47,42.805,6.029,CST-1368DR,4098,4352,11252,01.311,553
2023-11-28T09:16:49,42.805,6.029,CST-1368DR,4098,4351,11250,01.312,553
2023-11-28T09:19:50,42.805,6.029,CST-1368DR,4098,4350,11247,01.313,553
2023-11-28T09:22:52,42.805,6.029,CST-1368DR,4098,4350,11248,01.312,553
2023-11-28T09:25:53,42.805,6.029,CST-1368DR,4098,4349,11246,01.313,553
2023-11-28T09:28:55,42.805,6.029,CST-1368DR,4098,4350,11248,01.312,553
2023-11-28T09:31:57,42.805,6.029,CST-1368DR,4098,4350,11247,01.313,553
2023-11-28T09:34:58,42.805,6.029,CST-1368DR,4098,4348,11243,01.314,553
2023-11-28T09:38:00,42.805,6.029,CST-1368DR,4098,4349,11245,01.313,553
2023-11-28T09:41:01,42.805,6.029,CST-1368DR,4098,4350,11247,01.313,553
2023-11-28T09:44:03,42.805,6.029,CST-1368DR,4098,4350,11248,01.312,553
2023-11-28T09:47:05,42.805,6.029,CST-1368DR,4098,4345,11236,01.317,553
2023-11-28T09:50:06,42.805,6.029,CST-1368DR,4098,4349,11244,01.314,553
2023-11-28T09:53:08,42.805,6.029,CST-1368DR,4098,4348,11243,01.314,553
2023-11-28T09:56:09,42.805,6.029,CST-1368DR,4098,4349,11244,01.314,553
2023-11-28T09:59:11,42.805,6.029,CST-1368DR,4098,4349,11245,01.313,553
2023-11-28T10:02:13,42.805,6.029,CST-1368DR,4098,4349,11245,01.313,553
2023-11-28T10:05:14,42.805,6.029,CST-1368DR,4098,4350,11248,01.312,553
2023-11-28T10:08:16,42.805,6.029,CST-1368DR,4098,4350,11249,01.312,553
2023-11-28T10:11:17,42.805,6.029,CST-1368DR,4098,4349,11245,01.313,553
2023-11-28T10:14:19,42.805,6.029,CST-1368DR,4098,4348,11243,01.314,553
2023-11-28T10:17:20,42.805,6.029,CST-1368DR,4098,4345,11235,01.317,553
2023-11-28T10:20:22,42.805,6.029,CST-1368DR,4098,4347,11241,01.315,553
2023-11-28T10:23:24,42.805,6.029,CST-1368DR,4098,4349,11244,01.314,553
2023-11-28T10:26:25,42.805,6.029,CST-1368DR,4098,4349,11245,01.313,553
2023-11-28T10:29:27,42.805,6.029,CST-1368DR,4098,4347,11240,01.315,553
2023-11-28T10:32:28,42.805,6.029,CST-1368DR,4098,4347,11241,01.315,553
2023-11-28T10:35:30,42.805,6.029,CST-1368DR,4098,4348,11241,01.315,553
2023-11-28T10:38:31,42.805,6.029,CST-1368DR,4098,4349,11245,01.313,553
2023-11-28T10:41:33,42.805,6.029,CST-1368DR,4098,4346,11236,01.317,553
2023-11-28T10:44:35,42.805,6.029,CST-1368DR,4098,4348,11243,01.314,553
2023-11-28T10:47:36,42.805,6.029,CST-1368DR,4098,4351,11249,01.312,553
2023-11-28T10:50:38,42.805,6.029,CST-1368DR,4098,4350,11248,01.312,553
2023-11-28T10:53:39,42.805,6.029,CST-1368DR,4098,4347,11241,01.315,553
2023-11-28T10:56:41,42.805,6.029,CST-1368DR,4098,4347,11240,01.315,553
2023-11-28T10:59:43,42.805,6.029,CST-1368DR,4098,4348,11241,01.315,553
2023-11-28T11:02:44,42.805,6.029,CST-1368DR,4098,4346,11238,01.316,553
2023-11-28T11:05:46,42.805,6.029,CST-1368DR,4098,4347,11240,01.315,553
2023-11-28T11:08:47,42.805,6.029,CST-1368DR,4098,4347,11240,01.315,553
2023-11-28T11:11:49,42.805,6.029,CST-1368DR,4098,4344,11232,01.318,553
2023-11-28T11:14:50,42.805,6.029,CST-1368DR,4098,4346,11236,01.317,553
2023-11-28T11:17:52,42.805,6.029,CST-1368DR,4098,4348,11243,01.314,553
2023-11-28T11:20:54,42.805,6.029,CST-1368DR,4098,4349,11245,01.313,553
2023-11-28T11:23:55,42.805,6.029,CST-1368DR,4098,4347,11239,01.316,553
2023-11-28T11:26:57,42.805,6.029,CST-1368DR,4098,4347,11239,01.316,553
2023-11-28T11:29:58,42.805,6.029,CST-1368DR,4098,4346,11236,01.317,553
2023-11-28T11:33:00,42.805,6.029,CST-1368DR,4098,4348,11241,01.315,553
2023-11-28T11:36:02,42.805,6.029,CST-1368DR,4098,4347,11241,01.315,553
2023-11-28T11:39:03,42.805,6.029,CST-1368DR,4098,4346,11238,01.316,553
2023-11-28T11:42:05,42.805,6.029,CST-1368DR,4098,4345,11234,01.317,553
2023-11-28T11:45:06,42.805,6.029,CST-1368DR,4098,4345,11234,01.317,553
2023-11-28T11:48:08,42.805,6.029,CST-1368DR,4098,4343,11229,01.319,553
2023-11-28T11:51:10,42.805,6.029,CST-1368DR,4098,4346,11238,01.316,553
2023-11-28T11:54:11,42.805,6.029,CST-1368DR,4098,4346,11238,01.316,553
2023-11-28T11:57:13,42.805,6.029,CST-1368DR,4098,4348,11241,01.315,553
2023-11-28T12:00:14,42.805,6.029,CST-1368DR,4098,4346,11238,01.316,553
2023-11-28T12:03:16,42.805,6.029,CST-1368DR,4098,4345,11236,01.317,553
2023-11-28T12:06:17,42.805,6.029,CST-1368DR,4098,4344,11232,01.318,553
2023-11-28T12:09:19,42.805,6.029,CST-1368DR,4098,4347,11239,01.316,553
2023-11-28T12:12:21,42.805,6.029,CST-1368DR,4098,4347,11239,01.316,553
2023-11-28T12:15:22,42.805,6.029,CST-1368DR,4098,4345,11236,01.317,553
2023-11-28T12:18:24,42.805,6.029,CST-1368DR,4098,4345,11234,01.317,553
2023-11-28T12:21:25,42.805,6.029,CST-1368DR,4098,4346,11237,01.316,553
2023-11-28T12:24:27,42.805,6.029,CST-1368DR,4098,4344,11231,01.318,553
2023-11-28T12:27:28,42.805,6.029,CST-1368DR,4098,4347,11239,01.316,553
2023-11-28T12:30:30,42.805,6.029,CST-1368DR,4098,4347,11240,01.315,553
2023-11-28T12:33:32,42.805,6.029,CST-1368DR,4098,4348,11243,01.314,553
2023-11-28T12:36:33,42.805,6.029,CST-1368DR,4098,4348,11243,01.314,553
2023-11-28T12:39:35,42.805,6.029,CST-1368DR,4098,4346,11236,01.317,553
2023-11-28T12:42:36,42.805,6.029,CST-1368DR,4098,4345,11235,01.317,553
2023-11-28T12:45:38,42.805,6.029,CST-1368DR,4098,4345,11234,01.317,553
2023-11-28T12:48:39,42.805,6.029,CST-1368DR,4098,4346,11237,01.316,553
2023-11-28T12:51:41,42.805,6.029,CST-1368DR,4098,4345,11236,01.317,553
2023-11-28T12:54:43,42.805,6.029,CST-1368DR,4098,4348,11242,01.315,553
2023-11-28T12:57:44,42.805,6.029,CST-1368DR,4098,4347,11239,01.316,553
2023-11-28T13:00:46,42.805,6.029,CST-1368DR,4098,4346,11237,01.316,553
2023-11-28T13:03:47,42.805,6.029,CST-1368DR,4098,4346,11237,01.316,553
2023-11-28T13:06:49,42.805,6.029,CST-1368DR,4098,4347,11239,01.316,553
2023-11-28T13:09:51,42.805,6.029,CST-1368DR,4098,4346,11238,01.316,553
2023-11-28T13:12:52,42.805,6.029,CST-1368DR,4098,4343,11230,01.319,553
2023-11-28T13:15:54,42.805,6.029,CST-1368DR,4098,4346,11238,01.316,553
2023-11-28T13:18:55,42.805,6.029,CST-1368DR,4098,4345,11234,01.317,553
2023-11-28T13:21:57,42.805,6.029,CST-1368DR,4098,4346,11237,01.316,553
2023-11-28T13:24:58,42.805,6.029,CST-1368DR,4098,4346,11238,01.316,553
2023-11-28T13:28:00,42.805,6.029,CST-1368DR,4098,4346,11236,01.317,553
2023-11-28T13:31:03,42.805,6.029,CST-1368DR,4098,4345,11236,01.317,553
2023-11-28T13:34:05,42.805,6.029,CST-1368DR,4098,4342,11228,01.320,553
2023-11-28T13:37:06,42.805,6.029,CST-1368DR,4098,4345,11236,01.317,553
2023-11-28T13:40:08,42.805,6.029,CST-1368DR,4098,4346,11236,01.317,553
2023-11-28T13:43:09,42.805,6.029,CST-1368DR,4098,4345,11235,01.317,552
2023-11-28T13:46:11,42.805,6.029,CST-1368DR,4098,4344,11232,01.318,553
2023-11-28T13:49:13,42.805,6.029,CST-1368DR,4098,4345,11235,01.317,553
2023-11-28T13:52:14,42.805,6.029,CST-1368DR,4098,4346,11236,01.317,553
2023-11-28T13:55:16,42.805,6.029,CST-1368DR,4098,4342,11226,01.320,553
2023-11-28T13:58:17,42.805,6.029,CST-1368DR,4098,4342,11226,01.320,553
2023-11-28T14:01:19,42.805,6.029,CST-1368DR,4098,4341,11225,01.321,553
2023-11-28T14:04:21,42.805,6.029,CST-1368DR,4098,4342,11228,01.320,553
2023-11-28T14:07:22,42.805,6.029,CST-1368DR,4098,4342,11228,01.320,553
2023-11-28T14:10:24,42.805,6.029,CST-1368DR,4098,4342,11227,01.320,553
2023-11-28T14:13:25,42.805,6.029,CST-1368DR,4098,4341,11225,01.321,553
2023-11-28T14:16:27,42.805,6.029,CST-1368DR,4098,4344,11231,01.318,553
2023-11-28T14:19:28,42.805,6.029,CST-1368DR,4098,4342,11226,01.320,553
2023-11-28T14:22:30,42.805,6.029,CST-1368DR,4098,4342,11227,01.320,553
2023-11-28T14:25:32,42.805,6.029,CST-1368DR,4098,4343,11229,01.319,553
2023-11-28T14:28:33,42.805,6.029,CST-1368DR,4098,4343,11230,01.319,553
2023-11-28T14:31:35,42.805,6.029,CST-1368DR,4098,4342,11228,01.320,553
2023-11-28T14:34:36,42.805,6.029,CST-1368DR,4098,4345,11236,01.317,553
2023-11-28T14:37:38,42.805,6.029,CST-1368DR,4098,4344,11232,01.318,553
2023-11-28T14:40:40,42.805,6.029,CST-1368DR,4098,4343,11229,01.319,553
2023-11-28T14:43:41,42.805,6.029,CST-1368DR,4098,4343,11230,01.319,553
2023-11-28T14:46:43,42.805,6.029,CST-1368DR,4098,4341,11225,01.321,553
2023-11-28T14:49:44,42.805,6.029,CST-1368DR,4098,4342,11227,01.320,553
2023-11-28T14:52:46,42.805,6.029,CST-1368DR,4098,4342,11227,01.320,553
2023-11-28T14:55:47,42.805,6.029,CST-1368DR,4098,4344,11231,01.318,553
2023-11-28T14:58:49,42.805,6.029,CST-1368DR,4098,4343,11230,01.319,553
2023-11-28T15:01:51,42.805,6.029,CST-1368DR,4098,4342,11228,01.320,553
2023-11-28T15:04:52,42.805,6.029,CST-1368DR,4098,4339,11219,01.323,553
2023-11-28T15:07:54,42.805,6.029,CST-1368DR,4098,4347,11239,01.316,553
2023-11-28T15:10:55,42.805,6.029,CST-1368DR,4098,4344,11232,01.318,553
2023-11-28T15:13:57,42.805,6.029,CST-1368DR,4098,4345,11234,01.317,553
2023-11-28T15:16:58,42.805,6.029,CST-1368DR,4098,4342,11227,01.320,553
2023-11-28T15:20:00,42.805,6.029,CST-1368DR,4098,4345,11235,01.317,553
2023-11-28T15:23:02,42.805,6.029,CST-1368DR,4098,4344,11232,01.318,553
2023-11-28T15:26:03,42.805,6.029,CST-1368DR,4098,4344,11233,01.318,553
2023-11-28T15:29:05,42.805,6.029,CST-1368DR,4098,4344,11232,01.318,553
2023-11-28T15:32:06,42.805,6.029,CST-1368DR,4098,4345,11235,01.317,553
2023-11-28T15:35:08,42.805,6.029,CST-1368DR,4098,4349,11246,01.313,553
2023-11-28T15:38:10,42.805,6.029,CST-1368DR,4098,4347,11240,01.315,552
2023-11-28T15:41:11,42.805,6.029,CST-1368DR,4098,4342,11227,01.320,553
2023-11-28T15:44:13,42.805,6.029,CST-1368DR,4098,4343,11229,01.319,553
2023-11-28T15:47:14,42.805,6.029,CST-1368DR,4098,4343,11230,01.319,553
2023-11-28T15:50:16,42.805,6.029,CST-1368DR,4098,4345,11234,01.317,553
2023-11-28T15:53:18,42.805,6.029,CST-1368DR,4098,4344,11232,01.318,553
2023-11-28T15:56:19,42.805,6.029,CST-1368DR,4098,4343,11230,01.319,553
2023-11-28T15:59:21,42.805,6.029,CST-1368DR,4098,4345,11236,01.317,553
2023-11-28T16:02:22,42.805,6.029,CST-1368DR,4098,4345,11236,01.317,553
2023-11-28T16:05:24,42.805,6.029,CST-1368DR,4098,4345,11234,01.317,553
2023-11-28T16:08:25,42.805,6.029,CST-1368DR,4098,4345,11234,01.317,553
2023-11-28T16:11:27,42.805,6.029,CST-1368DR,4098,4347,11240,01.315,553
2023-11-28T16:14:29,42.805,6.029,CST-1368DR,4098,4347,11241,01.315,553
2023-11-28T16:17:30,42.805,6.029,CST-1368DR,4098,4347,11239,01.316,553
2023-11-28T16:20:32,42.805,6.029,CST-1368DR,4098,4348,11242,01.315,553
2023-11-28T16:23:33,42.805,6.029,CST-1368DR,4098,4348,11241,01.315,553
2023-11-28T16:26:35,42.805,6.029,CST-1368DR,4098,4348,11243,01.314,553
2023-11-28T16:29:36,42.805,6.029,CST-1368DR,4098,4349,11244,01.314,553
2023-11-28T16:32:38,42.805,6.029,CST-1368DR,4098,4346,11238,01.316,553
2023-11-28T16:35:40,42.805,6.029,CST-1368DR,4098,4348,11242,01.315,553
2023-11-28T16:38:41,42.805,6.029,CST-1368DR,4098,4349,11245,01.313,553